VK2OU Weather Reports


Display with metric or nautical units.
time (UTC)temp
F
wind
direction
speed
MPH
gust
MPH
rain 1hr
in
rain 24hr
in
rain mn
in
humidity
%
barometer
mb
20260510230524 52 163 2.0 5.0 0.00 0.00 0.00 89
20260510225552 52 161 2.0 3.0 0.00 0.00 0.00 88
20260510224609 53 170 2.0 5.0 0.00 0.00 0.00 87
20260510224602 53 0.0 0.0 0.00 0.00 0.00 99
20260510223532 52 187 2.0 3.0 0.00 0.00 0.00 87
20260510222525 51 162 2.0 3.0 0.00 0.00 0.00 87
20260510221531 51 183 2.0 3.0 0.00 0.00 0.00 87
20260510221528 51 0.0 0.0 0.00 0.00 0.00 99
20260510220534 49 0.0 0.0 0.00 0.00 0.00 99
20260510220524 50 196 2.0 5.0 0.00 0.00 0.00 89
20260510215532 47 207 2.0 5.0 0.00 0.00 0.00 91
20260510215524 48 0.0 0.0 0.00 0.00 0.00 99
20260510214551 48 0.0 0.0 0.00 0.00 0.00 99
20260510214544 46 198 2.0 5.0 0.00 0.00 0.00 92
20260510213532 46 174 1.0 3.0 0.00 0.00 0.00 92
20260510213522 48 0.0 0.0 0.00 0.00 0.00 99
20260510212523 46 185 1.0 2.0 0.00 0.00 0.00 90
20260510211532 47 158 1.0 3.0 0.00 0.00 0.00 91
20260510210524 48 224 1.0 2.0 0.00 0.00 0.00 87
20260510205552 50 171 1.0 3.0 0.00 0.00 0.00 87
20260510205247 49 0.0 0.0 0.00 0.00 0.00 99
20260510204524 50 206 2.0 5.0 0.00 0.00 0.00 87
20260510203533 48 203 1.0 3.0 0.00 0.00 0.00 89
20260510202523 46 186 2.0 3.0 0.00 0.00 0.00 92
20260510202520 47 0.0 0.0 0.00 0.00 0.00 99
20260510201532 45 198 1.0 2.0 0.00 0.00 0.00 91
20260510201529 46 0.0 0.0 0.00 0.00 0.00 99
20260510200536 46 0.0 0.0 0.00 0.00 0.00 99
20260510200524 45 193 1.0 2.0 0.00 0.00 0.00 92
20260510195531 45 182 0.0 1.0 0.00 0.00 0.00 89
20260510195525 46 0.0 0.0 0.00 0.00 0.00 99
20260510194613 46 0.0 0.0 0.00 0.00 0.00 99
20260510194605 46 200 1.0 3.0 0.00 0.00 0.00 91
20260510193703 46 0.0 0.0 0.00 0.00 0.00 99
20260510193612 45 195 1.0 2.0 0.00 0.00 0.00 91
20260510192530 45 0.0 0.0 0.00 0.00 0.00 99
20260510192524 45 195 1.0 2.0 0.00 0.00 0.00 92
20260510191532 45 187 1.0 2.0 0.00 0.00 0.00 92
20260510191520 45 0.0 0.0 0.00 0.00 0.00 99
20260510190528 44 0.0 0.0 0.00 0.00 0.00 99
20260510190524 43 193 2.0 3.0 0.00 0.00 0.00 94
20260510185535 44 0.0 0.0 0.00 0.00 0.00 99
20260510185532 43 200 1.0 3.0 0.00 0.00 0.00 94
20260510184525 43 0.0 0.0 0.00 0.00 0.00 99
20260510183533 43 0.0 0.0 0.00 0.00 0.00 99
20260510182524 42 190 2.0 5.0 0.00 0.00 0.00 94
20260510182522 43 0.0 0.0 0.00 0.00 0.00 99
20260510181532 42 186 2.0 5.0 0.00 0.00 0.00 93
20260510180524 43 181 2.0 3.0 0.00 0.00 0.00 92
20260510180519 44 0.0 0.0 0.00 0.00 0.00 99
20260510175532 44 166 1.0 2.0 0.00 0.00 0.00 90
20260510175528 46 0.0 0.0 0.00 0.00 0.00 99
20260510174535 46 0.0 0.0 0.00 0.00 0.00 99
20260510174524 45 195 1.0 2.0 0.00 0.00 0.00 90
20260510173531 47 169 1.0 5.0 0.00 0.00 0.00 86
20260510173525 47 0.0 0.0 0.00 0.00 0.00 99
20260510172533 48 0.0 0.0 0.00 0.00 0.00 99
20260510172524 48 203 2.0 3.0 0.00 0.00 0.00 86
20260510171531 48 181 2.0 6.0 0.00 0.00 0.00 86
20260510171522 48 0.0 0.0 0.00 0.00 0.00 99
20260510170549 47 0.0 0.0 0.00 0.00 0.00 99
20260510170544 47 190 3.0 6.0 0.00 0.00 0.00 90
20260510165537 46 0.0 0.0 0.00 0.00 0.00 99
20260510165532 44 191 3.0 6.0 0.00 0.00 0.00 93
20260510164528 46 0.0 0.0 0.00 0.00 0.00 99
20260510164524 45 177 2.0 3.0 0.00 0.00 0.00 89
20260510163535 47 0.0 0.0 0.00 0.00 0.00 99
20260510163532 46 179 2.0 3.0 0.00 0.00 0.00 89
20260510162524 46 188 2.0 5.0 0.00 0.00 0.00 89
20260510161532 47 179 2.0 3.0 0.00 0.00 0.00 89
20260510160524 47 186 2.0 5.0 0.00 0.00 0.00 89
20260510160522 47 0.0 0.0 0.00 0.00 0.00 99
20260510155532 46 191 2.0 3.0 0.00 0.00 0.00 91
20260510155530 47 0.0 0.0 0.00 0.00 0.00 99
20260510154557 47 0.0 0.0 0.00 0.00 0.00 99
20260510154544 46 192 2.0 3.0 0.00 0.00 0.00 91
20260510153532 47 183 1.0 2.0 0.00 0.00 0.00 90
20260510153527 47 0.0 0.0 0.00 0.00 0.00 99
20260510152534 47 0.0 0.0 0.00 0.00 0.00 99
20260510152524 47 185 3.0 6.0 0.00 0.00 0.00 94
20260510151531 46 185 2.0 3.0 0.00 0.00 0.00 96
20260510151524 46 0.0 0.0 0.00 0.00 0.00 99
20260510150531 46 0.0 0.0 0.00 0.00 0.00 99
20260510150524 46 184 2.0 3.0 0.00 0.00 0.00 96
20260510145532 46 184 2.0 2.0 0.00 0.00 0.00 96
20260510145521 46 0.0 0.0 0.00 0.00 0.00 99
20260510144529 47 0.0 0.0 0.00 0.00 0.00 99
20260510144524 46 173 2.0 3.0 0.00 0.00 0.00 96
20260510143536 47 0.0 0.0 0.00 0.00 0.00 99
20260510143532 46 188 1.0 2.0 0.00 0.00 0.00 96
20260510142526 47 0.0 0.0 0.00 0.00 0.00 99
20260510142524 46 179 2.0 2.0 0.00 0.00 0.00 96
20260510141534 47 0.0 0.0 0.00 0.00 0.00 99
20260510140524 47 173 2.0 3.0 0.00 0.00 0.00 95
20260510135532 47 174 2.0 5.0 0.00 0.00 0.00 94
20260510134524 48 184 1.0 2.0 0.00 0.00 0.00 92
20260510134520 48 0.0 0.0 0.00 0.00 0.00 99
20260510133552 49 174 2.0 3.0 0.00 0.00 0.00 92
20260510133549 49 0.0 0.0 0.00 0.00 0.00 99
20260510132536 49 0.0 0.0 0.00 0.00 0.00 99
20260510132524 49 180 1.0 3.0 0.00 0.00 0.00 92
20260510131545 49 0.0 0.0 0.00 0.00 0.00 99
20260510131532 49 173 2.0 5.0 0.00 0.00 0.00 92
20260510130533 49 0.0 0.0 0.00 0.00 0.00 99
20260510130524 49 165 2.0 5.0 0.00 0.00 0.00 92
20260510125532 49 170 2.0 3.0 0.00 0.00 0.00 93
20260510125522 49 0.0 0.0 0.00 0.00 0.00 99
20260510124531 50 0.0 0.0 0.00 0.00 0.00 99
20260510124525 50 176 2.0 3.0 0.00 0.00 0.00 93
20260510123531 50 163 2.0 5.0 0.00 0.00 0.00 93
20260510123520 50 0.0 0.0 0.00 0.00 0.00 99
20260510122528 50 0.0 0.0 0.00 0.00 0.00 99
20260510122524 49 169 2.0 3.0 0.00 0.00 0.00 93
20260510121537 50 0.0 0.0 0.00 0.00 0.00 99
20260510121533 50 167 2.0 6.0 0.00 0.00 0.00 93
20260510120525 50 0.0 0.0 0.00 0.00 0.00 99
20260510115532 50 170 2.0 3.0 0.00 0.00 0.00 93
20260510114545 50 157 2.0 5.0 0.00 0.00 0.00 93
20260510113532 50 160 2.0 3.0 0.00 0.00 0.00 93
20260510112544 51 160 2.0 3.0 0.00 0.00 0.00 92
20260510111533 51 158 2.0 5.0 0.00 0.00 0.00 92
20260510111031 51 0.0 0.0 0.00 0.00 0.00 99
20260510110524 51 162 2.0 5.0 0.00 0.00 0.00 91
20260510110020 51 0.0 0.0 0.00 0.00 0.00 99
20260510105532 51 163 3.0 7.0 0.00 0.00 0.00 91
20260510105028 51 0.0 0.0 0.00 0.00 0.00 99
20260510104524 51 164 3.0 5.0 0.00 0.00 0.00 91
20260510104036 51 0.0 0.0 0.00 0.00 0.00 99
20260510103532 51 162 2.0 6.0 0.00 0.00 0.00 91
20260510103025 51 0.0 0.0 0.00 0.00 0.00 99
20260510102525 51 148 2.0 5.0 0.00 0.00 0.00 91
20260510102034 51 0.0 0.0 0.00 0.00 0.00 99
20260510101532 51 158 2.0 5.0 0.00 0.00 0.00 90
20260510100524 51 162 2.0 5.0 0.00 0.00 0.00 90
20260510095532 51 180 1.0 3.0 0.00 0.00 0.00 89
20260510094524 51 179 2.0 3.0 0.00 0.00 0.00 88
20260510093552 52 155 2.0 5.0 0.00 0.00 0.00 87
20260510092525 52 137 3.0 8.0 0.00 0.00 0.00 87
20260510091532 53 152 3.0 7.0 0.00 0.00 0.00 86
20260510090524 53 145 3.0 7.0 0.00 0.00 0.00 86
20260510085552 53 148 3.0 7.0 0.00 0.00 0.00 85
20260510085031 53 0.0 0.0 0.00 0.00 0.00 99
20260510084524 53 142 3.0 5.0 0.00 0.00 0.00 85
20260510083532 53 137 3.0 6.0 0.00 0.00 0.00 84
20260510082524 54 128 4.0 8.0 0.00 0.00 0.00 84
20260510081532 54 137 3.0 8.0 0.00 0.00 0.00 83
20260510080525 54 118 3.0 8.0 0.00 0.00 0.00 83
20260510075553 55 119 3.0 7.0 0.00 0.00 0.00 81
20260510074526 55 0.0 0.0 0.00 0.00 0.00 99
20260510074524 55 138 3.0 9.0 0.00 0.00 0.00 80
20260510073533 56 0.0 0.0 0.00 0.00 0.00 99
20260510072524 56 103 4.0 8.0 0.00 0.00 0.00 78
20260510071553 57 91 4.0 9.0 0.00 0.00 0.00 76
20260510070524 58 98 3.0 7.0 0.00 0.00 0.00 74
20260510065532 58 98 3.0 6.0 0.00 0.00 0.00 71
20260510064524 59 94 3.0 8.0 0.00 0.00 0.00 65
20260510063552 60 63 1.0 5.0 0.00 0.00 0.00 61
20260510062524 61 64 2.0 6.0 0.00 0.00 0.00 59
20260510061532 63 51 2.0 8.0 0.00 0.00 0.00 57
20260510061159 66 0.0 0.0 0.00 0.00 0.00 99
20260510060525 63 16 1.0 3.0 0.00 0.00 0.00 56
20260510060054 66 0.0 0.0 0.00 0.00 0.00 99
20260510055533 63 35 1.0 5.0 0.00 0.00 0.00 56
20260510055329 67 0.0 0.0 0.00 0.00 0.00 99
20260510054544 64 43 3.0 6.0 0.00 0.00 0.00 56
20260510054031 69 0.0 0.0 0.00 0.00 0.00 99
20260510053532 64 61 1.0 3.0 0.00 0.00 0.00 55
20260510053101 69 0.0 0.0 0.00 0.00 0.00 99
20260510052525 65 351 1.0 5.0 0.00 0.00 0.00 54
20260510052029 69 0.0 0.0 0.00 0.00 0.00 99
20260510051534 65 42 2.0 5.0 0.00 0.00 0.00 54
20260510051057 69 0.0 0.0 0.00 0.00 0.00 99
20260510050525 65 69 1.0 5.0 0.00 0.00 0.00 54
20260510050026 70 0.0 0.0 0.00 0.00 0.00 99
20260510045612 65 289 1.0 3.0 0.00 0.00 0.00 54
20260510044524 65 340 2.0 5.0 0.00 0.00 0.00 54
20260510043533 65 13 2.0 6.0 0.00 0.00 0.00 52
20260510042524 65 85 2.0 3.0 0.00 0.00 0.00 52
20260510041532 64 322 1.0 5.0 0.00 0.00 0.00 54
20260510040524 66 49 1.0 3.0 0.00 0.00 0.00 51
20260510035532 64 289 2.0 5.0 0.00 0.00 0.00 53
20260510034525 64 55 2.0 6.0 0.00 0.00 0.00 56
20260510034052 0 0.0 0.0 0.00 0.00 0.00
20260510033553 64 51 2.0 6.0 0.00 0.00 0.00 55
20260510032526 70 0.0 0.0 0.00 0.00 0.00 99
20260510031553 70 0.0 0.0 0.00 0.00 0.00 99
20260510031533 66 277 2.0 5.0 0.00 0.00 0.00 52
20260510030524 71 0.0 0.0 0.00 0.00 0.00 99
20260510025532 64 314 3.0 6.0 0.00 0.00 0.00 55
20260510024529 64 262 3.0 7.0 0.00 0.00 0.00 56
20260510024521 71 0.0 0.0 0.00 0.00 0.00 99
20260510024025 70 0.0 0.0 0.00 0.00 0.00 99
20260510023533 63 242 1.0 3.0 0.00 0.00 0.00 54
20260510022537 71 0.0 0.0 0.00 0.00 0.00 99
20260510022524 62 218 2.0 5.0 0.00 0.00 0.00 55
20260510021533 62 201 1.0 3.0 0.00 0.00 0.00 56
20260510021526 70 0.0 0.0 0.00 0.00 0.00 99
20260510020534 70 0.0 0.0 0.00 0.00 0.00 99
20260510020525 61 143 2.0 5.0 0.00 0.00 0.00 57
20260510015542 71 0.0 0.0 0.00 0.00 0.00 99
20260510015532 61 166 2.0 5.0 0.00 0.00 0.00 57
20260510014531 71 0.0 0.0 0.00 0.00 0.00 99
20260510014525 61 179 0.0 2.0 0.00 0.00 0.00 57
20260510013552 61 167 1.0 3.0 0.00 0.00 0.00 55
20260510013521 70 0.0 0.0 0.00 0.00 0.00 99
20260510012548 71 0.0 0.0 0.00 0.00 0.00 99
20260510012545 61 178 0.0 1.0 0.00 0.00 0.00 56
20260510011615 69 0.0 0.0 0.00 0.00 0.00 99
20260510010544 68 0.0 0.0 0.00 0.00 0.00 99
20260510010525 60 184 0.0 2.0 0.00 0.00 0.00 58
20260510005611 68 0.0 0.0 0.00 0.00 0.00 99
20260510005533 60 175 1.0 3.0 0.00 0.00 0.00 59
20260510004545 60 166 2.0 3.0 0.00 0.00 0.00 61
20260510004541 67 0.0 0.0 0.00 0.00 0.00 99
20260510003533 59 177 1.0 2.0 0.00 0.00 0.00 63
20260510003531 68 0.0 0.0 0.00 0.00 0.00 99
20260510002525 60 173 1.0 3.0 0.00 0.00 0.00 64
20260510002521 67 0.0 0.0 0.00 0.00 0.00 99
20260510001553 58 177 1.0 2.0 0.00 0.00 0.00 66
20260510001549 67 0.0 0.0 0.00 0.00 0.00 99
20260510000536 64 0.0 0.0 0.00 0.00 0.00 99
20260510000524 58 177 1.0 2.0 0.00 0.00 0.00 67
20260509235644 59 0.0 0.0 0.00 0.00 0.00 99
20260509235533 56 175 1.0 2.0 0.00 0.00 0.00 71
20260509234533 59 0.0 0.0 0.00 0.00 0.00 99
20260509234526 54 178 1.0 3.0 0.00 0.00 0.00 76
20260509233532 53 175 1.0 3.0 0.00 0.00 0.00 78
20260509233523 58 0.0 0.0 0.00 0.00 0.00 99
20260509232530 56 0.0 0.0 0.00 0.00 0.00 99
20260509232526 51 174 1.0 2.0 0.00 0.00 0.00 80
20260509231533 51 178 1.0 3.0 0.00 0.00 0.00 81
20260509231520 55 0.0 0.0 0.00 0.00 0.00 99